一网星座-0308星 (ONEWEB-0308 )

导读 | 星芒AI

ONEWEB-0308 是 OneWeb 卫星星座计划中的一颗低轨通信卫星,旨在为全球提供高速互联网服务。该卫星于2023年发射,属于OneWeb第二代卫星系列,具备更高性能和更强的覆盖能力。OneWeb 项目致力于填补数字鸿沟,特别是在偏远和农村地区。ONEWEB-0308 采用先进通信技术,支持全球范围内的宽带连接,是实现全球互联战略的重要组成部分。

基本信息
目录编号:
49094
目录名称:
ONEWEB-0308
国际标识:
2021-075V
轨道中心:
EARTH
卫星名称:
一网星座-0308星
卫星全名:
一网星座-0308星 (ONEWEB-0308 )
卫星状态:
在轨 (已飞行1577 天)
发射日期:
2021-08-21 UTC
国别 :
英国 (GB)
星等 :
--
轨道信息
数据来源 国际轨道数据
星历时间: 2025-12-15T03:16:14+0800
23小时前
查看轨道信息
半长轴: 7591.681km
偏心率: 0.0001735
轨道倾角: 87.894°
近地点辐角 97.179°
升交点赤经 27.281°
平近点角 262.954°
近地点: 1212.228km
远地点: 1214.864km
周期: 109.715分钟
每日圈数: 13.124896
详细信息
平衡模式:
三轴稳定
覆盖范围:
全球
运营商:
一网卫星公司
运营商所在国:
英国
制造商(研发单位):
一网卫星公司
制造商所在国:
英国
使用方式:
暂无
卫星简介
OneWeb卫星网络由648颗重约125公斤的微型卫星组成,运行在1200公里的轨道上。 每颗卫星都能够提供至少每秒8千兆位的吞吐量,以使用其高吞吐量的Ku频段有效载荷为家庭和移动平台提供互联网接入。该卫星仍在工作。
2D轨道图
3D轨道图
轨道高度分析图
轨道倾角分析图
轨道综合分析图
查看轨道综合分析图